sat.trackr.live / text

‹ back to catalog

STARLINK-36580

NORAD 67546 · 2026-014Q

PAYLOAD ACTIVE UNKNOWN

§ Identity

Operator
Country
US
Launch date
2026-01-22
Launch site
AFWTR
Launch vehicle
Mass (kg)
RCS (m²)

Purposes: comms

External: N2YO · Heavens-Above · Gunter

§ Orbital elements

Epoch: 2026-05-25T02:44:11.015232Z

Period
93.91 min
Inclination
97.2877°
Eccentricity
0.0001169
Mean motion
15.33451145 rev/d
Perigee alt
464.7 km
Apogee alt
466.3 km
Semi-major
6,843.7 km
B*
5.9098e-4
RAAN
32.1306°
Arg perigee
69.4540°
Mean anomaly
290.6828°
Rev number
2,049

§ Raw data

STARLINK-365801 67546U 26014Q   26145.11401638  .00019056  00000+0  59098-3 0  99972 67546  97.2877  32.1306 0001169  69.4540 290.6828 15.33451145 20492

JSON: /api/v1/satellites/67546 · /tle

For live sub-satellite position, see the globe view (requires WebGL).

§ Visibility from observer

Set your observer location to see the next 7 days of passes ≥ 10°. The values pass through the URL so the page stays shareable.

No JS? Fill the form by hand. The geolocation button needs JavaScript.